Starlink 32085

operational
NORAD ID: 59685 Int'l Des: 2024-086 Owner: SPXS Country: US Constellation: starlink
LEOCIRCULAR

关于 Starlink 32085

正在加载描述...

实时位置

正在加载3D地球...

即将过境

高度历史

Altitude vs Time

uPlot chart will show altitude changes over time

两行轨道根数

1 59685U 24086D 25257.48441291 -.00003221 00000-0 -10757-3 0 9990
2 59685 43.0051 335.0294 0001312 263.8738 96.1964 15.27582618 77169
Epoch: Sep 14, 2025 • Age: 16 hours

当前状态

高度 482.5 km
速度 7.63 km/s
星下点 3.30°N, 92.03°E
发射日期 May 8, 2024
运行时间 1.3 years
类型 internet

技术详情

分类 Payload
质量 730.00 kg
干质量 700.00 kg
总质量 730.00 kg
长度 0.30 m
直径 4.10 m
跨度 29.00 m
形状 Box + pan
制造商 SPXS
平台类型 Starlink V2M
阶段状态 In Orbit
所有者/国家 SPXS/US

大型星座

Loading constellations...